Regional Weather Roundup
Issued by NWS

Home | Current Version | Previous Version | Graphics & Text | Print | Product List | Glossary On
Versions: 1 2 3 4 5 6 7 8 9 10 11 12 13 14 15 16 17 18 19 20 21 22 23 24 25 26 27 28 29 30 31 32 33 34 35 36 37 38 39 40 41 42 43 44 45 46 47 48 49 50
905
ASUS43 KLMK 211010
RWRKY
KENTUCKY REGIONAL WEATHER ROUNDUP
NATIONAL WEATHER SERVICE LOUISVILLE KY
500 AM EST SUN JAN 21 2018

NOTE "FAIR" INDICATES FEW OR NO CLOUDS BELOW 12,000 FEET
WITH NO SIGNIFICANT WEATHER AND/OR OBSTRUCTIONS TO VISIBILITY.

KYZ001>023-026-027-061>063-070>075-211100-
WESTERN AND SOUTH CENTRAL KENTUCKY

CITY           SKY/WX    TMP DP  RH WIND       PRES   REMARKS
PADUCAH        CLOUDY    51  42  71 S6        30.06S
HENDERSON      CLOUDY    47  40  76 S10       30.06S
OWENSBORO      MOCLDY    45  38  76 S8        30.08S
HOPKINSVILLE   FAIR      52  38  60 S7        30.10S
BOWLING GREEN  CLOUDY    51  39  63 S9        30.12F
GLASGOW        MOCLDY    51  37  60 S6        30.13S
$$

KYZ024-025-028>034-038-045-046-053-211100-
NORTH CENTRAL KENTUCKY

CITY           SKY/WX    TMP DP  RH WIND       PRES   REMARKS
LOUISVILLE/SDF CLOUDY    53  39  59 S8        30.09S
LOUISVILLE/LOU MOCLDY    49  41  74 S7        30.10S
FORT KNOX      MOCLDY    47  38  71 S8        30.08S
$$

KYZ035>037-039>044-047>052-055>060-089>105-211100-
NORTHEAST KENTUCKY

CITY           SKY/WX    TMP DP  RH WIND       PRES   REMARKS
LEXINGTON      CLOUDY    48  38  68 S8        30.13S
COVINGTON      CLOUDY    46  40  79 S5        30.08S
FRANKFORT      CLOUDY    50  37  61 S8        30.10S
$$

KYZ054-064>069-076>088-106>120-211100-
SOUTHEAST KENTUCKY

CITY           SKY/WX    TMP DP  RH WIND       PRES   REMARKS
JACKSON        CLOUDY    48  36  63 VRB5      30.17S
LONDON         CLOUDY    44  36  73 SE3       30.18S
SOMERSET       CLOUDY    46  34  61 S5        30.18S
MIDDLESBORO    CLOUDY    38  36  91 CALM      30.21S
MONTICELLO     CLOUDY    47  38  71 VRB7      30.18
$$





USA.gov is the U.S. government's official web portal to all federal, state and local government web resources and services.